Weather History for Hebron, NE

Change the Weather History Date:

Sunday, April 27, 2014

  Actual Average Record
Temperature  
Mean Temperature 70 °F -  
Max Temperature 79 °F 70 °F 96 °F (1989)
Min Temperature 59 °F 44 °F 28 °F (1967)
Cooling Degree Days 4    
Growing Degree Days 20 (Base 50)    
Moisture  
Dew Point 50 °F    
Average Humidity 56    
Maximum Humidity 87    
Minimum Humidity 14    
Precipitation  
Precipitation 0.00 in - - ()
Sea Level Pressure  
Sea Level Pressure 29.27 in    
Wind  
Wind Speed 18 mph (SSE)    
Max Wind Speed 30 mph    
Max Gust Speed 40 mph    
Visibility 8 miles    
Events Rain , Thunderstorm    
Averages and records for this station are not official NWS values.
T = Trace of Precipitation, MM = Missing Value Source: NWS Daily Summary

Daily Weather History Graph

Daily Weather History Graph

Search for Another Location

Airport:

Trip Planner

Search our weather history database for the weather conditions in past years. The results will help you decide how hot, cold, wet, or windy it might be!

Date:

Astronomy

Apr. 27, 2014 Rise Set
Actual Time 6:35 AM CDT 8:21 PM CDT
Civil Twilight 6:06 AM CDT 8:50 PM CDT
Nautical Twilight 5:31 AM CDT 9:25 PM CDT
Astronomical Twilight 4:53 AM CDT 10:03 PM CDT
Moon 5:36 AM CDT (4/27) 6:56 PM CDT (4/27)
Length of Visible Light 14h 44m
Length of Day
13h 46m
Waning Crescent, 3% of the Moon is Illuminated
Apr 27
Waning Crescent
Apr 29
New
May 6
First Quarter
May 14
Full
May 21
Last Quarter

Hourly Weather History & Observations

Time (CDT) Temp. Dew Point Humidity Pressure Visibility Wind Dir Wind Speed Gust Speed Precip Events Conditions
12:15 AM 70.7 °F 58.5 °F 65% 29.41 in 10.0 mi SSE 20.7 mph 25.3 mph N/A   Clear
12:35 AM 70.5 °F 58.3 °F 65% 29.40 in 10.0 mi SSE 18.4 mph 24.2 mph N/A   Clear
12:55 AM 70.7 °F 58.1 °F 64% 29.40 in 10.0 mi SSE 16.1 mph 23.0 mph N/A   Clear
1:15 AM 70.7 °F 57.7 °F 63% 29.40 in 10.0 mi SSE 13.8 mph 23.0 mph N/A   Clear
1:35 AM 70.7 °F 57.7 °F 63% 29.40 in 10.0 mi SSE 16.1 mph 23.0 mph N/A   Clear
1:55 AM 71.1 °F 58.3 °F 64% 29.39 in 10.0 mi SSE 15.0 mph 24.2 mph N/A   Clear
2:15 AM 69.8 °F 58.3 °F 67% 29.38 in 10.0 mi South 17.3 mph - N/A   Clear
2:35 AM 70.3 °F 59.9 °F 69% 29.38 in 10.0 mi South 15.0 mph 25.3 mph N/A   Clear
2:55 AM 69.8 °F 59.5 °F 70% 29.37 in 10.0 mi South 19.6 mph 28.8 mph N/A   Clear
3:15 AM 69.6 °F 60.6 °F 73% 29.37 in 10.0 mi South 18.4 mph 25.3 mph N/A   Clear
3:35 AM 69.8 °F 60.8 °F 73% 29.36 in 10.0 mi South 20.7 mph 29.9 mph N/A   Clear
3:55 AM 69.4 °F 61.0 °F 74% 29.35 in 10.0 mi South 20.7 mph 27.6 mph N/A   Clear
4:15 AM 68.9 °F 60.8 °F 75% 29.35 in 10.0 mi South 18.4 mph 25.3 mph N/A   Clear
4:35 AM 68.5 °F 61.0 °F 77% 29.35 in 10.0 mi South 17.3 mph 25.3 mph N/A   Clear
4:55 AM 68.9 °F 61.2 °F 76% 29.34 in 7.0 mi South 18.4 mph 25.3 mph N/A   Scattered Clouds
5:15 AM 69.1 °F 61.7 °F 77% 29.33 in 10.0 mi South 19.6 mph 27.6 mph N/A   Scattered Clouds
5:35 AM 69.3 °F 61.7 °F 77% 29.34 in 7.0 mi South 17.3 mph 27.6 mph N/A   Clear
5:55 AM 70.0 °F 62.1 °F 76% 29.36 in 10.0 mi South 20.7 mph 33.4 mph N/A   Mostly Cloudy
6:15 AM 70.2 °F 62.2 °F 76% 29.35 in 10.0 mi South 18.4 mph 28.8 mph N/A   Overcast
6:35 AM 70.2 °F 62.4 °F 76% 29.35 in 10.0 mi SSE 20.7 mph 26.5 mph N/A   Overcast
6:55 AM 69.4 °F 62.6 °F 79% 29.35 in 7.0 mi SSE 19.6 mph 28.8 mph N/A   Mostly Cloudy
7:15 AM 68.9 °F 62.6 °F 80% 29.34 in 7.0 mi SSE 19.6 mph 24.2 mph N/A   Mostly Cloudy
7:35 AM 68.5 °F 62.6 °F 81% 29.36 in 7.0 mi SSE 13.8 mph - N/A Rain , Thunderstorm Light Thunderstorms and Rain
7:55 AM 67.1 °F 63.1 °F 87% 29.27 in 7.0 mi East 21.9 mph 25.3 mph N/A Rain Light Rain
8:15 AM 66.9 °F 62.1 °F 84% 29.32 in 7.0 mi SE 17.3 mph 20.7 mph N/A   Overcast
8:35 AM 64.2 °F 60.1 °F 86% 29.32 in 7.0 mi SSE 9.2 mph - N/A Rain Light Rain
9:15 AM 64.4 °F 59.7 °F 85% 29.35 in 10.0 mi SE 15.0 mph 20.7 mph N/A   Clear
9:35 AM 63.5 °F 57.9 °F 82% 29.35 in 10.0 mi ESE 13.8 mph 21.9 mph N/A Thunderstorm Scattered Clouds
9:55 AM 62.8 °F 57.4 °F 82% 29.32 in 10.0 mi ESE 16.1 mph 21.9 mph N/A   Mostly Cloudy
10:15 AM 62.8 °F 57.6 °F 83% 29.31 in 10.0 mi ESE 12.7 mph 21.9 mph N/A   Scattered Clouds
10:35 AM 61.9 °F 57.7 °F 86% 29.31 in 10.0 mi East 13.8 mph - N/A   Mostly Cloudy
10:55 AM 62.1 °F 58.1 °F 87% 29.30 in 10.0 mi East 18.4 mph 21.9 mph N/A   Mostly Cloudy
11:15 AM 62.1 °F 57.7 °F 86% 29.30 in 10.0 mi ESE 20.7 mph 28.8 mph N/A   Overcast
11:35 AM 61.2 °F 57.2 °F 87% 29.30 in 10.0 mi ESE 20.7 mph 32.2 mph N/A   Mostly Cloudy
11:55 AM 61.9 °F 58.1 °F 87% 29.26 in 10.0 mi ESE 21.9 mph 28.8 mph N/A   Scattered Clouds
12:35 PM 65.5 °F 56.3 °F 72% 29.28 in 10.0 mi ESE 18.4 mph 29.9 mph N/A   Clear
12:55 PM 65.3 °F 54.9 °F 69% 29.28 in 10.0 mi ESE 10.4 mph - N/A   Mostly Cloudy
1:15 PM 66.4 °F 56.3 °F 70% 29.24 in 10.0 mi East 12.7 mph - N/A Rain Light Rain
1:35 PM 71.2 °F 53.4 °F 53% 29.23 in 10.0 mi SE 20.7 mph 24.2 mph N/A   Clear
1:55 PM 71.6 °F 52.7 °F 51% 29.21 in 10.0 mi ESE 18.4 mph 29.9 mph N/A   Clear
2:15 PM 73.2 °F 54.1 °F 51% 29.20 in 10.0 mi SE 23.0 mph 27.6 mph N/A   Clear
2:35 PM 72.3 °F 54.5 °F 53% 29.18 in 10.0 mi ESE 17.3 mph 24.2 mph N/A   Scattered Clouds
2:55 PM 75.9 °F 55.2 °F 49% 29.17 in 10.0 mi SSE 28.8 mph 38.0 mph N/A Thunderstorm Scattered Clouds
3:15 PM 75.9 °F 53.4 °F 45% 29.16 in 10.0 mi SE 25.3 mph 33.4 mph N/A Thunderstorm Clear
3:35 PM 79.2 °F 29.1 °F 16% 29.16 in 10.0 mi South 29.9 mph 39.1 mph N/A   Clear
3:55 PM 78.6 °F 24.8 °F 14% 29.17 in 10.0 mi South 26.5 mph 38.0 mph N/A   Clear
4:15 PM 77.7 °F 25.5 °F 15% 29.17 in 10.0 mi South 26.5 mph 40.3 mph N/A   Clear
4:35 PM 77.2 °F 26.8 °F 16% 29.17 in 10.0 mi South 24.2 mph 35.7 mph N/A   Clear
5:15 PM 76.5 °F 27.7 °F 17% 29.17 in 10.0 mi South 24.2 mph 34.5 mph N/A   Clear
5:35 PM 76.5 °F 28.9 °F 17% 29.16 in 10.0 mi South 21.9 mph 33.4 mph N/A   Clear
5:55 PM 76.3 °F 28.8 °F 17% 29.16 in 10.0 mi South 24.2 mph 32.2 mph N/A   Clear
6:10 PM 75.7 °F 28.9 °F 18% 29.16 in 10.0 mi SSE 25.3 mph 31.1 mph N/A   Clear
6:35 PM 75.6 °F 29.8 °F 19% 29.15 in 10.0 mi SSE 23.0 mph 28.8 mph N/A   Clear
6:55 PM 74.5 °F 30.2 °F 20% 29.15 in 10.0 mi SSE 23.0 mph 29.9 mph N/A   Scattered Clouds
7:15 PM 74.5 °F 30.0 °F 19% 29.14 in 10.0 mi SSE 23.0 mph 32.2 mph N/A   Scattered Clouds
7:35 PM 74.1 °F 31.1 °F 21% 29.15 in 10.0 mi SSE 21.9 mph 33.4 mph N/A   Scattered Clouds
7:55 PM 72.5 °F 36.7 °F 27% 29.16 in 2.0 mi South 23.0 mph 27.6 mph N/A   Haze
8:15 PM 70.9 °F 36.7 °F 29% 29.17 in 1.8 mi South 23.0 mph 32.2 mph N/A   Haze
8:35 PM 69.4 °F 36.0 °F 29% 29.18 in 4.0 mi South 23.0 mph 33.4 mph N/A   Haze
8:55 PM 67.6 °F 37.4 °F 33% 29.19 in 4.0 mi South 19.6 mph 24.2 mph N/A   Haze
9:15 PM 67.1 °F 38.3 °F 35% 29.20 in 4.0 mi South 13.8 mph 20.7 mph N/A   Haze
9:35 PM 65.7 °F 39.2 °F 38% 29.20 in 4.0 mi South 16.1 mph - N/A   Haze
9:55 PM 65.3 °F 38.7 °F 38% 29.20 in 4.0 mi South 12.7 mph 19.6 mph N/A   Haze
10:15 PM 64.4 °F 39.6 °F 40% 29.20 in 4.0 mi South 11.5 mph - N/A   Haze
10:35 PM 63.3 °F 40.3 °F 43% 29.20 in 4.0 mi South 12.7 mph 18.4 mph N/A   Haze
10:55 PM 62.8 °F 40.1 °F 43% 29.20 in 4.0 mi South 10.4 mph - N/A   Haze
11:15 PM 61.7 °F 39.7 °F 44% 29.21 in 3.0 mi South 13.8 mph - N/A   Haze
11:35 PM 60.6 °F 39.9 °F 46% 29.22 in 4.0 mi South 6.9 mph - N/A   Haze
11:55 PM 59.4 °F 39.9 °F 49% 29.22 in 4.0 mi South 11.5 mph - N/A   Haze